contact:dominique.lefevre@mio.osupytheas.fr, maurice.libes@osupytheas.fr, didier.mallarino@osupytheas.fr
Project:EMSO http://www.emso-fr.org/EMSO-France
Depth: 2436.0 m
Title:EMSO Ligure Ouest : Data MII capteur MICROCAT
DateTime_Computer,Latitude,Longitude,Temperature,Conductivity,Pressure,DateTime_Instrument
DateTime_Computer,Latitude,Longitude,degC,S m-1,dbar,DateTime_Instrument
2023-08-16T00:00:19Z,42.805,6.029,13.3084,4.60151,2470.73,2023-8-16T02:02:38Z
2023-08-16T00:03:22Z,42.805,6.029,13.3091,4.60175,2470.74,2023-8-16T02:05:41Z
2023-08-16T00:06:25Z,42.805,6.029,13.3096,4.60155,2470.73,2023-8-16T02:08:44Z
2023-08-16T00:09:28Z,42.805,6.029,13.3103,4.60145,2470.693,2023-8-16T02:11:47Z
2023-08-16T00:12:31Z,42.805,6.029,13.3109,4.60144,2470.661,2023-8-16T02:14:50Z
2023-08-16T00:15:34Z,42.805,6.029,13.3113,4.60140,2470.717,2023-8-16T02:17:53Z
2023-08-16T00:18:37Z,42.805,6.029,13.3111,4.60153,2470.661,2023-8-16T02:20:56Z
2023-08-16T00:21:40Z,42.805,6.029,13.3123,4.60155,2470.661,2023-8-16T02:24:00Z
2023-08-16T00:24:43Z,42.805,6.029,13.3124,4.60155,2470.67,2023-8-16T02:27:03Z
2023-08-16T00:27:46Z,42.805,6.029,13.3119,4.60157,2470.693,2023-8-16T02:30:06Z
2023-08-16T00:30:49Z,42.805,6.029,13.3068,4.60150,2470.73,2023-8-16T02:33:09Z
2023-08-16T00:33:53Z,42.805,6.029,13.3076,4.60165,2470.707,2023-8-16T02:36:12Z
2023-08-16T00:36:56Z,42.805,6.029,13.3036,4.60180,2470.707,2023-8-16T02:39:15Z
2023-08-16T00:39:59Z,42.805,6.029,13.3032,4.60213,2470.684,2023-8-16T02:42:18Z
2023-08-16T00:43:02Z,42.805,6.029,13.3028,4.60120,2470.707,2023-8-16T02:45:21Z
2023-08-16T00:46:05Z,42.805,6.029,13.3034,4.60112,2470.693,2023-8-16T02:48:24Z
2023-08-16T00:49:08Z,42.805,6.029,13.3031,4.60110,2470.693,2023-8-16T02:51:27Z
2023-08-16T00:52:11Z,42.805,6.029,13.3027,4.60108,2470.707,2023-8-16T02:54:30Z
2023-08-16T00:55:14Z,42.805,6.029,13.3030,4.60100,2470.67,2023-8-16T02:57:33Z
2023-08-16T00:58:17Z,42.805,6.029,13.3027,4.60104,2470.67,2023-8-16T03:00:37Z
2023-08-16T01:01:20Z,42.805,6.029,13.3033,4.60099,2470.684,2023-8-16T03:03:40Z
2023-08-16T01:04:23Z,42.805,6.029,13.3029,4.60097,2470.707,2023-8-16T03:06:43Z
2023-08-16T01:07:26Z,42.805,6.029,13.3030,4.60097,2470.693,2023-8-16T03:09:46Z
2023-08-16T01:10:30Z,42.805,6.029,13.3026,4.60096,2470.684,2023-8-16T03:12:49Z
2023-08-16T01:13:33Z,42.805,6.029,13.3030,4.60096,2470.646,2023-8-16T03:15:52Z
2023-08-16T01:16:36Z,42.805,6.029,13.3026,4.60093,2470.67,2023-8-16T03:18:55Z
2023-08-16T01:19:39Z,42.805,6.029,13.3029,4.60096,2470.661,2023-8-16T03:21:58Z
2023-08-16T01:22:42Z,42.805,6.029,13.3029,4.60092,2470.67,2023-8-16T03:25:01Z
2023-08-16T01:25:45Z,42.805,6.029,13.3026,4.60092,2470.684,2023-8-16T03:28:04Z
2023-08-16T01:28:48Z,42.805,6.029,13.3031,4.60092,2470.67,2023-8-16T03:31:07Z
2023-08-16T01:31:51Z,42.805,6.029,13.3031,4.60095,2470.646,2023-8-16T03:34:10Z
2023-08-16T01:34:54Z,42.805,6.029,13.3028,4.60096,2470.661,2023-8-16T03:37:14Z
2023-08-16T01:37:57Z,42.805,6.029,13.3029,4.60094,2470.67,2023-8-16T03:40:17Z
2023-08-16T01:41:00Z,42.805,6.029,13.3031,4.60097,2470.661,2023-8-16T03:43:20Z
2023-08-16T01:44:03Z,42.805,6.029,13.3033,4.60093,2470.646,2023-8-16T03:46:23Z
2023-08-16T01:47:07Z,42.805,6.029,13.3031,4.60093,2470.67,2023-8-16T03:49:26Z
2023-08-16T01:50:10Z,42.805,6.029,13.3034,4.60092,2470.67,2023-8-16T03:52:29Z
2023-08-16T01:53:13Z,42.805,6.029,13.3031,4.60096,2470.633,2023-8-16T03:55:32Z
2023-08-16T01:56:16Z,42.805,6.029,13.3030,4.60100,2470.646,2023-8-16T03:58:35Z
2023-08-16T01:59:19Z,42.805,6.029,13.3031,4.60095,2470.684,2023-8-16T04:01:38Z
2023-08-16T02:02:22Z,42.805,6.029,13.3032,4.60095,2470.646,2023-8-16T04:04:41Z
2023-08-16T02:05:25Z,42.805,6.029,13.3034,4.60095,2470.646,2023-8-16T04:07:44Z
2023-08-16T02:08:28Z,42.805,6.029,13.3026,4.60092,2470.624,2023-8-16T04:10:47Z
2023-08-16T02:11:31Z,42.805,6.029,13.3029,4.60106,2470.646,2023-8-16T04:13:51Z
2023-08-16T02:14:34Z,42.805,6.029,13.3031,4.60093,2470.646,2023-8-16T04:16:54Z
2023-08-16T02:17:37Z,42.805,6.029,13.3035,4.60092,2470.67,2023-8-16T04:19:57Z
2023-08-16T02:20:40Z,42.805,6.029,13.3029,4.60094,2470.646,2023-8-16T04:23:00Z
2023-08-16T02:23:44Z,42.805,6.029,13.3029,4.60094,2470.586,2023-8-16T04:26:03Z
2023-08-16T02:26:47Z,42.805,6.029,13.3030,4.60096,2470.661,2023-8-16T04:29:06Z
2023-08-16T02:29:50Z,42.805,6.029,13.3029,4.60092,2470.646,2023-8-16T04:32:09Z
2023-08-16T02:32:53Z,42.805,6.029,13.3031,4.60092,2470.684,2023-8-16T04:35:12Z
2023-08-16T02:35:56Z,42.805,6.029,13.3031,4.60092,2470.67,2023-8-16T04:38:15Z
2023-08-16T02:38:59Z,42.805,6.029,13.3029,4.60092,2470.637,2023-8-16T04:41:18Z
2023-08-16T02:42:02Z,42.805,6.029,13.3032,4.60092,2470.646,2023-8-16T04:44:21Z
2023-08-16T02:45:05Z,42.805,6.029,13.3026,4.60094,2470.646,2023-8-16T04:47:24Z
2023-08-16T02:48:08Z,42.805,6.029,13.3025,4.60092,2470.646,2023-8-16T04:50:28Z
2023-08-16T02:51:11Z,42.805,6.029,13.3024,4.60092,2470.646,2023-8-16T04:53:31Z
2023-08-16T02:54:14Z,42.805,6.029,13.3031,4.60091,2470.646,2023-8-16T04:56:34Z
2023-08-16T02:57:17Z,42.805,6.029,13.3032,4.60092,2470.67,2023-8-16T04:59:37Z
2023-08-16T03:00:21Z,42.805,6.029,13.3030,4.60092,2470.661,2023-8-16T05:02:40Z
2023-08-16T03:03:24Z,42.805,6.029,13.3032,4.60091,2470.684,2023-8-16T05:05:43Z
2023-08-16T03:06:27Z,42.805,6.029,13.3030,4.60091,2470.67,2023-8-16T05:08:46Z
2023-08-16T03:09:30Z,42.805,6.029,13.3033,4.60095,2470.684,2023-8-16T05:11:49Z
2023-08-16T03:12:33Z,42.805,6.029,13.3034,4.60091,2470.67,2023-8-16T05:14:52Z
2023-08-16T03:15:36Z,42.805,6.029,13.3031,4.60092,2470.67,2023-8-16T05:17:55Z
2023-08-16T03:18:39Z,42.805,6.029,13.3032,4.60092,2470.646,2023-8-16T05:20:58Z
2023-08-16T03:21:42Z,42.805,6.029,13.3029,4.60092,2470.646,2023-8-16T05:24:02Z
2023-08-16T03:24:45Z,42.805,6.029,13.3031,4.60090,2470.633,2023-8-16T05:27:05Z
2023-08-16T03:27:48Z,42.805,6.029,13.3032,4.60091,2470.656,2023-8-16T05:30:08Z
2023-08-16T03:30:51Z,42.805,6.029,13.3026,4.60093,2470.67,2023-8-16T05:33:11Z
2023-08-16T03:33:54Z,42.805,6.029,13.3031,4.60092,2470.67,2023-8-16T05:36:14Z
2023-08-16T03:36:58Z,42.805,6.029,13.3031,4.60092,2470.67,2023-8-16T05:39:17Z
2023-08-16T03:40:01Z,42.805,6.029,13.3031,4.60097,2470.67,2023-8-16T05:42:20Z
2023-08-16T03:43:04Z,42.805,6.029,13.3026,4.60092,2470.684,2023-8-16T05:45:23Z
2023-08-16T03:46:07Z,42.805,6.029,13.3029,4.60094,2470.67,2023-8-16T05:48:26Z
2023-08-16T03:49:10Z,42.805,6.029,13.3031,4.60094,2470.684,2023-8-16T05:51:29Z
2023-08-16T03:52:13Z,42.805,6.029,13.3034,4.60093,2470.67,2023-8-16T05:54:32Z
2023-08-16T03:55:16Z,42.805,6.029,13.3031,4.60090,2470.684,2023-8-16T05:57:35Z
2023-08-16T03:58:19Z,42.805,6.029,13.3031,4.60092,2470.67,2023-8-16T06:00:39Z
2023-08-16T04:01:22Z,42.805,6.029,13.3027,4.60092,2470.707,2023-8-16T06:03:42Z
2023-08-16T04:04:25Z,42.805,6.029,13.3031,4.60092,2470.693,2023-8-16T06:06:45Z
2023-08-16T04:07:28Z,42.805,6.029,13.3031,4.60093,2470.693,2023-8-16T06:09:48Z
2023-08-16T04:10:31Z,42.805,6.029,13.3034,4.60089,2470.67,2023-8-16T06:12:51Z
2023-08-16T04:13:35Z,42.805,6.029,13.3028,4.60090,2470.67,2023-8-16T06:15:54Z
2023-08-16T04:16:38Z,42.805,6.029,13.3029,4.60094,2470.717,2023-8-16T06:18:57Z
2023-08-16T04:19:41Z,42.805,6.029,13.3031,4.60093,2470.707,2023-8-16T06:22:00Z
2023-08-16T04:22:44Z,42.805,6.029,13.3026,4.60092,2470.67,2023-8-16T06:25:03Z
2023-08-16T04:25:47Z,42.805,6.029,13.3031,4.60093,2470.693,2023-8-16T06:28:06Z
2023-08-16T04:28:50Z,42.805,6.029,13.3031,4.60094,2470.693,2023-8-16T06:31:09Z
2023-08-16T04:31:53Z,42.805,6.029,13.3031,4.60089,2470.67,2023-8-16T06:34:12Z
2023-08-16T04:34:56Z,42.805,6.029,13.3034,4.60088,2470.693,2023-8-16T06:37:16Z
2023-08-16T04:37:59Z,42.805,6.029,13.3035,4.60095,2470.707,2023-8-16T06:40:19Z
2023-08-16T04:41:02Z,42.805,6.029,13.3025,4.60089,2470.693,2023-8-16T06:43:22Z
2023-08-16T04:44:05Z,42.805,6.029,13.3034,4.60096,2470.693,2023-8-16T06:46:25Z
2023-08-16T04:47:08Z,42.805,6.029,13.3031,4.60093,2470.73,2023-8-16T06:49:28Z
2023-08-16T04:50:12Z,42.805,6.029,13.3033,4.60090,2470.679,2023-8-16T06:52:31Z
2023-08-16T04:53:15Z,42.805,6.029,13.3032,4.60093,2470.693,2023-8-16T06:55:34Z
2023-08-16T04:56:18Z,42.805,6.029,13.3032,4.60089,2470.707,2023-8-16T06:58:37Z
2023-08-16T04:59:21Z,42.805,6.029,13.3036,4.60092,2470.73,2023-8-16T07:01:40Z
2023-08-16T05:02:24Z,42.805,6.029,13.3029,4.60090,2470.74,2023-8-16T07:04:43Z
2023-08-16T05:05:27Z,42.805,6.029,13.3032,4.60089,2470.693,2023-8-16T07:07:46Z
2023-08-16T05:08:30Z,42.805,6.029,13.3028,4.60089,2470.717,2023-8-16T07:10:49Z
2023-08-16T05:11:33Z,42.805,6.029,13.3031,4.60089,2470.74,2023-8-16T07:13:52Z
2023-08-16T05:14:36Z,42.805,6.029,13.3029,4.60091,2470.74,2023-8-16T07:16:56Z
2023-08-16T05:17:39Z,42.805,6.029,13.3026,4.60090,2470.73,2023-8-16T07:19:59Z
2023-08-16T05:20:42Z,42.805,6.029,13.3029,4.60089,2470.754,2023-8-16T07:23:02Z
2023-08-16T05:23:45Z,42.805,6.029,13.3031,4.60089,2470.73,2023-8-16T07:26:05Z
2023-08-16T05:26:49Z,42.805,6.029,13.3029,4.60092,2470.74,2023-8-16T07:29:08Z
2023-08-16T05:29:52Z,42.805,6.029,13.3028,4.60090,2470.717,2023-8-16T07:32:11Z
2023-08-16T05:32:55Z,42.805,6.029,13.3029,4.60091,2470.73,2023-8-16T07:35:14Z
2023-08-16T05:35:58Z,42.805,6.029,13.3029,4.60091,2470.73,2023-8-16T07:38:17Z
2023-08-16T05:39:01Z,42.805,6.029,13.3029,4.60091,2470.74,2023-8-16T07:41:20Z
2023-08-16T05:42:04Z,42.805,6.029,13.3029,4.60090,2470.73,2023-8-16T07:44:23Z
2023-08-16T05:45:07Z,42.805,6.029,13.3032,4.60091,2470.74,2023-8-16T07:47:26Z
2023-08-16T05:48:10Z,42.805,6.029,13.3029,4.60091,2470.74,2023-8-16T07:50:30Z
2023-08-16T05:51:13Z,42.805,6.029,13.3029,4.60089,2470.74,2023-8-16T07:53:33Z
2023-08-16T05:54:16Z,42.805,6.029,13.3028,4.60090,2470.717,2023-8-16T07:56:36Z
2023-08-16T05:57:19Z,42.805,6.029,13.3029,4.60090,2470.763,2023-8-16T07:59:39Z
2023-08-16T06:00:22Z,42.805,6.029,13.3026,4.60090,2470.74,2023-8-16T08:02:42Z
2023-08-16T06:03:26Z,42.805,6.029,13.3025,4.60090,2470.777,2023-8-16T08:05:45Z
2023-08-16T06:06:29Z,42.805,6.029,13.3029,4.60089,2470.74,2023-8-16T08:08:48Z
2023-08-16T06:09:32Z,42.805,6.029,13.3033,4.60089,2470.74,2023-8-16T08:11:51Z
2023-08-16T06:12:35Z,42.805,6.029,13.3031,4.60090,2470.754,2023-8-16T08:14:54Z
2023-08-16T06:15:38Z,42.805,6.029,13.3026,4.60090,2470.763,2023-8-16T08:17:57Z
2023-08-16T06:18:41Z,42.805,6.029,13.3029,4.60089,2470.74,2023-8-16T08:21:00Z
2023-08-16T06:21:44Z,42.805,6.029,13.3028,4.60088,2470.763,2023-8-16T08:24:03Z
2023-08-16T06:24:47Z,42.805,6.029,13.3026,4.60088,2470.74,2023-8-16T08:27:06Z
2023-08-16T06:27:50Z,42.805,6.029,13.3028,4.60092,2470.754,2023-8-16T08:30:10Z
2023-08-16T06:30:52Z,42.805,6.029,13.3029,4.60091,2470.74,2023-8-16T08:33:11Z
2023-08-16T06:33:55Z,42.805,6.029,13.3029,4.60089,2470.777,2023-8-16T08:36:14Z
2023-08-16T06:36:58Z,42.805,6.029,13.3029,4.60090,2470.763,2023-8-16T08:39:17Z
2023-08-16T06:40:01Z,42.805,6.029,13.3029,4.60092,2470.74,2023-8-16T08:42:20Z
2023-08-16T06:43:04Z,42.805,6.029,13.3029,4.60088,2470.754,2023-8-16T08:45:24Z
2023-08-16T06:46:07Z,42.805,6.029,13.3030,4.60089,2470.74,2023-8-16T08:48:27Z
2023-08-16T06:49:10Z,42.805,6.029,13.3029,4.60091,2470.763,2023-8-16T08:51:30Z
2023-08-16T06:52:13Z,42.805,6.029,13.3029,4.60089,2470.763,2023-8-16T08:54:33Z
2023-08-16T06:55:16Z,42.805,6.029,13.3029,4.60089,2470.74,2023-8-16T08:57:36Z
2023-08-16T06:58:20Z,42.805,6.029,13.3034,4.60089,2470.787,2023-8-16T09:00:39Z
2023-08-16T07:01:23Z,42.805,6.029,13.3027,4.60089,2470.74,2023-8-16T09:03:42Z
2023-08-16T07:04:26Z,42.805,6.029,13.3027,4.60088,2470.763,2023-8-16T09:06:45Z
2023-08-16T07:07:29Z,42.805,6.029,13.3030,4.60089,2470.754,2023-8-16T09:09:48Z
2023-08-16T07:10:32Z,42.805,6.029,13.3027,4.60089,2470.763,2023-8-16T09:12:51Z
2023-08-16T07:13:35Z,42.805,6.029,13.3026,4.60089,2470.777,2023-8-16T09:15:54Z
2023-08-16T07:16:38Z,42.805,6.029,13.3029,4.60089,2470.777,2023-8-16T09:18:57Z
2023-08-16T07:19:41Z,42.805,6.029,13.3029,4.60088,2470.717,2023-8-16T09:22:01Z
2023-08-16T07:22:44Z,42.805,6.029,13.3029,4.60090,2470.763,2023-8-16T09:25:04Z
2023-08-16T07:25:47Z,42.805,6.029,13.3026,4.60089,2470.717,2023-8-16T09:28:07Z
2023-08-16T07:28:50Z,42.805,6.029,13.3028,4.60090,2470.777,2023-8-16T09:31:10Z
2023-08-16T07:31:53Z,42.805,6.029,13.3033,4.60088,2470.763,2023-8-16T09:34:13Z
2023-08-16T07:34:57Z,42.805,6.029,13.3029,4.60088,2470.763,2023-8-16T09:37:16Z
2023-08-16T07:38:00Z,42.805,6.029,13.3029,4.60089,2470.763,2023-8-16T09:40:19Z
2023-08-16T07:41:03Z,42.805,6.029,13.3030,4.60089,2470.74,2023-8-16T09:43:22Z
2023-08-16T07:44:06Z,42.805,6.029,13.3031,4.60090,2470.777,2023-8-16T09:46:25Z
2023-08-16T07:47:09Z,42.805,6.029,13.3027,4.60089,2470.754,2023-8-16T09:49:28Z
2023-08-16T07:50:12Z,42.805,6.029,13.3032,4.60091,2470.717,2023-8-16T09:52:31Z
2023-08-16T07:53:15Z,42.805,6.029,13.3029,4.60089,2470.787,2023-8-16T09:55:34Z
2023-08-16T07:56:18Z,42.805,6.029,13.3029,4.60089,2470.763,2023-8-16T09:58:38Z
2023-08-16T07:59:21Z,42.805,6.029,13.3030,4.60088,2470.74,2023-8-16T10:01:41Z
2023-08-16T08:02:24Z,42.805,6.029,13.3026,4.60089,2470.763,2023-8-16T10:04:44Z
2023-08-16T08:05:27Z,42.805,6.029,13.3026,4.60089,2470.74,2023-8-16T10:07:47Z
2023-08-16T08:08:30Z,42.805,6.029,13.3029,4.60092,2470.787,2023-8-16T10:10:50Z
2023-08-16T08:11:34Z,42.805,6.029,13.3031,4.60092,2470.763,2023-8-16T10:13:53Z
2023-08-16T08:14:37Z,42.805,6.029,13.3029,4.60088,2470.777,2023-8-16T10:16:56Z
2023-08-16T08:17:40Z,42.805,6.029,13.3029,4.60089,2470.763,2023-8-16T10:19:59Z
2023-08-16T08:20:43Z,42.805,6.029,13.3026,4.60088,2470.777,2023-8-16T10:23:02Z
2023-08-16T08:23:46Z,42.805,6.029,13.3031,4.60088,2470.754,2023-8-16T10:26:05Z
2023-08-16T08:26:49Z,42.805,6.029,13.3033,4.60088,2470.754,2023-8-16T10:29:08Z
2023-08-16T08:29:52Z,42.805,6.029,13.3029,4.60088,2470.74,2023-8-16T10:32:11Z
2023-08-16T08:32:55Z,42.805,6.029,13.3029,4.60089,2470.754,2023-8-16T10:35:14Z
2023-08-16T08:35:58Z,42.805,6.029,13.3030,4.60088,2470.754,2023-8-16T10:38:17Z
2023-08-16T08:39:01Z,42.805,6.029,13.3028,4.60089,2470.73,2023-8-16T10:41:20Z
2023-08-16T08:42:04Z,42.805,6.029,13.3029,4.60089,2470.74,2023-8-16T10:44:23Z
2023-08-16T08:45:07Z,42.805,6.029,13.3029,4.60089,2470.693,2023-8-16T10:47:27Z
2023-08-16T08:48:10Z,42.805,6.029,13.3029,4.60088,2470.717,2023-8-16T10:50:30Z
2023-08-16T08:51:13Z,42.805,6.029,13.3027,4.60088,2470.74,2023-8-16T10:53:33Z
2023-08-16T08:54:16Z,42.805,6.029,13.3031,4.60090,2470.693,2023-8-16T10:56:36Z
2023-08-16T08:57:19Z,42.805,6.029,13.3034,4.60090,2470.717,2023-8-16T10:59:39Z
2023-08-16T09:00:23Z,42.805,6.029,13.3029,4.60092,2470.717,2023-8-16T11:02:42Z
2023-08-16T09:03:26Z,42.805,6.029,13.3034,4.60092,2470.717,2023-8-16T11:05:45Z
2023-08-16T09:06:29Z,42.805,6.029,13.3041,4.60094,2470.73,2023-8-16T11:08:48Z
2023-08-16T09:09:32Z,42.805,6.029,13.3040,4.60102,2470.73,2023-8-16T11:11:51Z
2023-08-16T09:12:35Z,42.805,6.029,13.3039,4.60108,2470.693,2023-8-16T11:14:54Z
2023-08-16T09:15:38Z,42.805,6.029,13.3043,4.60102,2470.693,2023-8-16T11:17:57Z
2023-08-16T09:18:41Z,42.805,6.029,13.3039,4.60105,2470.73,2023-8-16T11:21:00Z
2023-08-16T09:21:44Z,42.805,6.029,13.3029,4.60102,2470.693,2023-8-16T11:24:04Z
2023-08-16T09:24:47Z,42.805,6.029,13.3035,4.60097,2470.717,2023-8-16T11:27:07Z
2023-08-16T09:27:50Z,42.805,6.029,13.3041,4.60106,2470.717,2023-8-16T11:30:10Z
2023-08-16T09:30:53Z,42.805,6.029,13.3047,4.60119,2470.707,2023-8-16T11:33:13Z
2023-08-16T09:33:57Z,42.805,6.029,13.3046,4.60110,2470.717,2023-8-16T11:36:16Z
2023-08-16T09:37:00Z,42.805,6.029,13.3046,4.60103,2470.707,2023-8-16T11:39:19Z
2023-08-16T09:40:03Z,42.805,6.029,13.3055,4.60125,2470.707,2023-8-16T11:42:22Z
2023-08-16T09:43:06Z,42.805,6.029,13.3046,4.60111,2470.717,2023-8-16T11:45:25Z
2023-08-16T09:46:09Z,42.805,6.029,13.3046,4.60143,2470.73,2023-8-16T11:48:28Z
2023-08-16T09:49:12Z,42.805,6.029,13.3063,4.60125,2470.717,2023-8-16T11:51:31Z
2023-08-16T09:52:15Z,42.805,6.029,13.3052,4.60180,2470.717,2023-8-16T11:54:34Z
2023-08-16T09:55:18Z,42.805,6.029,13.3054,4.60122,2470.67,2023-8-16T11:57:38Z
2023-08-16T09:58:21Z,42.805,6.029,13.3037,4.60129,2470.67,2023-8-16T12:00:41Z
2023-08-16T10:01:24Z,42.805,6.029,13.3044,4.60130,2470.693,2023-8-16T12:03:44Z
2023-08-16T10:04:27Z,42.805,6.029,13.3040,4.60135,2470.73,2023-8-16T12:06:47Z
2023-08-16T10:07:30Z,42.805,6.029,13.3039,4.60135,2470.693,2023-8-16T12:09:50Z
2023-08-16T10:10:34Z,42.805,6.029,13.3046,4.60135,2470.707,2023-8-16T12:12:53Z
2023-08-16T10:13:37Z,42.805,6.029,13.3046,4.60128,2470.684,2023-8-16T12:15:56Z
2023-08-16T10:16:40Z,42.805,6.029,13.3044,4.60132,2470.684,2023-8-16T12:18:59Z
2023-08-16T10:19:43Z,42.805,6.029,13.3048,4.60134,2470.684,2023-8-16T12:22:02Z
2023-08-16T10:22:46Z,42.805,6.029,13.3051,4.60135,2470.693,2023-8-16T12:25:05Z
2023-08-16T10:25:49Z,42.805,6.029,13.3067,4.60151,2470.67,2023-8-16T12:28:08Z
2023-08-16T10:28:52Z,42.805,6.029,13.3043,4.60128,2470.661,2023-8-16T12:31:12Z
2023-08-16T10:31:53Z,42.805,6.029,13.3049,4.60144,2470.717,2023-8-16T12:34:13Z
2023-08-16T10:34:56Z,42.805,6.029,13.3036,4.60127,2470.684,2023-8-16T12:37:16Z
2023-08-16T10:38:00Z,42.805,6.029,13.3042,4.60134,2470.693,2023-8-16T12:40:19Z
2023-08-16T10:41:03Z,42.805,6.029,13.3056,4.60128,2470.684,2023-8-16T12:43:22Z
2023-08-16T10:44:06Z,42.805,6.029,13.3043,4.60125,2470.684,2023-8-16T12:46:25Z
2023-08-16T10:47:09Z,42.805,6.029,13.3043,4.60137,2470.646,2023-8-16T12:49:28Z
2023-08-16T10:50:12Z,42.805,6.029,13.3041,4.60128,2470.624,2023-8-16T12:52:31Z
2023-08-16T10:53:15Z,42.805,6.029,13.3046,4.60123,2470.646,2023-8-16T12:55:34Z
2023-08-16T10:56:18Z,42.805,6.029,13.3042,4.60129,2470.684,2023-8-16T12:58:37Z
2023-08-16T10:59:21Z,42.805,6.029,13.3036,4.60129,2470.661,2023-8-16T13:01:41Z
2023-08-16T11:02:24Z,42.805,6.029,13.3047,4.60143,2470.646,2023-8-16T13:04:44Z
2023-08-16T11:05:27Z,42.805,6.029,13.3040,4.60127,2470.637,2023-8-16T13:07:47Z
2023-08-16T11:08:30Z,42.805,6.029,13.3035,4.60138,2470.646,2023-8-16T13:10:50Z
2023-08-16T11:11:34Z,42.805,6.029,13.3046,4.60131,2470.637,2023-8-16T13:13:53Z
2023-08-16T11:14:37Z,42.805,6.029,13.3039,4.60130,2470.624,2023-8-16T13:16:56Z
2023-08-16T11:17:40Z,42.805,6.029,13.3041,4.60119,2470.646,2023-8-16T13:19:59Z
2023-08-16T11:20:43Z,42.805,6.029,13.3044,4.60124,2470.684,2023-8-16T13:23:02Z
2023-08-16T11:23:46Z,42.805,6.029,13.3050,4.60142,2470.637,2023-8-16T13:26:05Z
2023-08-16T11:26:49Z,42.805,6.029,13.3038,4.60138,2470.67,2023-8-16T13:29:08Z
2023-08-16T11:29:52Z,42.805,6.029,13.3034,4.60157,2470.624,2023-8-16T13:32:11Z
2023-08-16T11:32:55Z,42.805,6.029,13.3046,4.60136,2470.646,2023-8-16T13:35:15Z
2023-08-16T11:35:58Z,42.805,6.029,13.3038,4.60133,2470.624,2023-8-16T13:38:18Z
2023-08-16T11:39:01Z,42.805,6.029,13.3045,4.60122,2470.637,2023-8-16T13:41:21Z
2023-08-16T11:42:04Z,42.805,6.029,13.3041,4.60135,2470.646,2023-8-16T13:44:24Z
2023-08-16T11:45:07Z,42.805,6.029,13.3044,4.60142,2470.6,2023-8-16T13:47:27Z
2023-08-16T11:48:11Z,42.805,6.029,13.3048,4.60132,2470.637,2023-8-16T13:50:30Z
2023-08-16T11:51:14Z,42.805,6.029,13.3036,4.60137,2470.6,2023-8-16T13:53:33Z
2023-08-16T11:54:17Z,42.805,6.029,13.3034,4.60128,2470.6,2023-8-16T13:56:36Z
2023-08-16T11:57:20Z,42.805,6.029,13.3041,4.60134,2470.624,2023-8-16T13:59:39Z
2023-08-16T12:00:23Z,42.805,6.029,13.3045,4.60132,2470.6,2023-8-16T14:02:42Z
2023-08-16T12:03:26Z,42.805,6.029,13.3046,4.60137,2470.646,2023-8-16T14:05:45Z
2023-08-16T12:06:29Z,42.805,6.029,13.3051,4.60141,2470.586,2023-8-16T14:08:48Z
2023-08-16T12:09:32Z,42.805,6.029,13.3051,4.60145,2470.614,2023-8-16T14:11:52Z
2023-08-16T12:12:35Z,42.805,6.029,13.3039,4.60126,2470.624,2023-8-16T14:14:55Z
2023-08-16T12:15:38Z,42.805,6.029,13.3043,4.60140,2470.591,2023-8-16T14:17:58Z
2023-08-16T12:18:41Z,42.805,6.029,13.3056,4.60147,2470.577,2023-8-16T14:21:01Z
2023-08-16T12:21:44Z,42.805,6.029,13.3036,4.60137,2470.6,2023-8-16T14:24:04Z
2023-08-16T12:24:48Z,42.805,6.029,13.3051,4.60141,2470.6,2023-8-16T14:27:07Z
2023-08-16T12:27:51Z,42.805,6.029,13.3041,4.60121,2470.577,2023-8-16T14:30:10Z
2023-08-16T12:30:54Z,42.805,6.029,13.3034,4.60119,2470.6,2023-8-16T14:33:13Z
2023-08-16T12:33:57Z,42.805,6.029,13.3046,4.60129,2470.577,2023-8-16T14:36:16Z
2023-08-16T12:37:00Z,42.805,6.029,13.3038,4.60116,2470.591,2023-8-16T14:39:19Z
2023-08-16T12:40:03Z,42.805,6.029,13.3036,4.60119,2470.6,2023-8-16T14:42:22Z
2023-08-16T12:43:06Z,42.805,6.029,13.3034,4.60122,2470.614,2023-8-16T14:45:25Z
2023-08-16T12:46:09Z,42.805,6.029,13.3041,4.60121,2470.6,2023-8-16T14:48:29Z
2023-08-16T12:49:12Z,42.805,6.029,13.3047,4.60146,2470.577,2023-8-16T14:51:32Z
2023-08-16T12:52:15Z,42.805,6.029,13.3034,4.60142,2470.577,2023-8-16T14:54:35Z
2023-08-16T12:55:18Z,42.805,6.029,13.3051,4.60142,2470.577,2023-8-16T14:57:38Z
2023-08-16T12:58:21Z,42.805,6.029,13.3051,4.60182,2470.567,2023-8-16T15:00:41Z
2023-08-16T13:01:25Z,42.805,6.029,13.3046,4.60162,2470.591,2023-8-16T15:03:44Z
2023-08-16T13:04:28Z,42.805,6.029,13.3069,4.60150,2470.577,2023-8-16T15:06:47Z
2023-08-16T13:07:31Z,42.805,6.029,13.3061,4.60145,2470.6,2023-8-16T15:09:50Z
2023-08-16T13:10:34Z,42.805,6.029,13.3043,4.60167,2470.591,2023-8-16T15:12:53Z
2023-08-16T13:13:37Z,42.805,6.029,13.3069,4.60135,2470.553,2023-8-16T15:15:56Z
2023-08-16T13:16:40Z,42.805,6.029,13.3046,4.60152,2470.591,2023-8-16T15:18:59Z
2023-08-16T13:19:43Z,42.805,6.029,13.3051,4.60166,2470.624,2023-8-16T15:22:02Z
2023-08-16T13:22:46Z,42.805,6.029,13.3054,4.60159,2470.577,2023-8-16T15:25:06Z
2023-08-16T13:25:49Z,42.805,6.029,13.3041,4.60125,2470.591,2023-8-16T15:28:09Z
2023-08-16T13:28:52Z,42.805,6.029,13.3049,4.60137,2470.577,2023-8-16T15:31:12Z
2023-08-16T13:31:55Z,42.805,6.029,13.3041,4.60153,2470.553,2023-8-16T15:34:15Z
2023-08-16T13:34:58Z,42.805,6.029,13.3063,4.60150,2470.614,2023-8-16T15:37:18Z
2023-08-16T13:38:02Z,42.805,6.029,13.3073,4.60151,2470.553,2023-8-16T15:40:21Z
2023-08-16T13:41:05Z,42.805,6.029,13.3058,4.60145,2470.577,2023-8-16T15:43:24Z
2023-08-16T13:44:08Z,42.805,6.029,13.3044,4.60155,2470.577,2023-8-16T15:46:27Z
2023-08-16T13:47:11Z,42.805,6.029,13.3050,4.60142,2470.577,2023-8-16T15:49:30Z
2023-08-16T13:50:14Z,42.805,6.029,13.3051,4.60153,2470.591,2023-8-16T15:52:33Z
2023-08-16T13:53:17Z,42.805,6.029,13.3058,4.60185,2470.614,2023-8-16T15:55:36Z
2023-08-16T13:56:20Z,42.805,6.029,13.3061,4.60215,2470.614,2023-8-16T15:58:39Z
2023-08-16T13:59:23Z,42.805,6.029,13.3076,4.60148,2470.591,2023-8-16T16:01:43Z
2023-08-16T14:02:26Z,42.805,6.029,13.3082,4.60140,2470.577,2023-8-16T16:04:46Z
2023-08-16T14:05:29Z,42.805,6.029,13.3091,4.60114,2470.6,2023-8-16T16:07:49Z
2023-08-16T14:08:32Z,42.805,6.029,13.3061,4.60117,2470.544,2023-8-16T16:10:52Z
2023-08-16T14:11:35Z,42.805,6.029,13.3057,4.60125,2470.614,2023-8-16T16:13:55Z
2023-08-16T14:14:39Z,42.805,6.029,13.3039,4.60192,2470.577,2023-8-16T16:16:58Z
2023-08-16T14:17:42Z,42.805,6.029,13.3064,4.60146,2470.591,2023-8-16T16:20:01Z
2023-08-16T14:20:45Z,42.805,6.029,13.3064,4.60167,2470.577,2023-8-16T16:23:04Z
2023-08-16T14:23:48Z,42.805,6.029,13.3078,4.60162,2470.577,2023-8-16T16:26:07Z
2023-08-16T14:26:51Z,42.805,6.029,13.3083,4.60120,2470.6,2023-8-16T16:29:10Z
2023-08-16T14:29:54Z,42.805,6.029,13.3050,4.60108,2470.614,2023-8-16T16:32:13Z
2023-08-16T14:32:56Z,42.805,6.029,13.3063,4.60114,2470.614,2023-8-16T16:35:15Z
2023-08-16T14:35:59Z,42.805,6.029,13.3048,4.60124,2470.577,2023-8-16T16:38:18Z
2023-08-16T14:39:02Z,42.805,6.029,13.3049,4.60150,2470.614,2023-8-16T16:41:22Z
2023-08-16T14:42:05Z,42.805,6.029,13.3057,4.60139,2470.591,2023-8-16T16:44:25Z
2023-08-16T14:45:08Z,42.805,6.029,13.3039,4.60131,2470.624,2023-8-16T16:47:28Z
2023-08-16T14:48:11Z,42.805,6.029,13.3067,4.60120,2470.6,2023-8-16T16:50:31Z
2023-08-16T14:51:15Z,42.805,6.029,13.3041,4.60147,2470.624,2023-8-16T16:53:34Z
2023-08-16T14:54:18Z,42.805,6.029,13.3037,4.60155,2470.637,2023-8-16T16:56:37Z
2023-08-16T14:57:21Z,42.805,6.029,13.3034,4.60167,2470.577,2023-8-16T16:59:40Z
2023-08-16T15:00:24Z,42.805,6.029,13.3033,4.60207,2470.614,2023-8-16T17:02:43Z
2023-08-16T15:03:27Z,42.805,6.029,13.3031,4.60240,2470.646,2023-8-16T17:05:46Z
2023-08-16T15:06:30Z,42.805,6.029,13.3028,4.60163,2470.624,2023-8-16T17:08:49Z
2023-08-16T15:09:33Z,42.805,6.029,13.3033,4.60168,2470.614,2023-8-16T17:11:52Z
2023-08-16T15:12:36Z,42.805,6.029,13.3036,4.60212,2470.614,2023-8-16T17:14:56Z